Wind_Speed
15 14 17 13 8 7 6 3 4 6 7 4 3 6 3 13 8 10 12 17 17 16
14 16 16 17 14 13 8 4 6 10 7 2 9 10 11 11 10 13 14 16 17 13
11 12 13 14 13 11 9 5 10 9 8 8 13 13 14 11 12 16 15 13 12 10
13 11 12 11 13 11 10 8 9 8 12 13 14 17 13 12 14 15 12 11 13 13
14 13 14 14 14 13 12 13 14 12 12 14 12 13 13 14 12 10 9 11 11 11
15 18 14 11 14 16 16 14 12 9 11 12 10 9 6 6 7 7 6 7 7 7
19 19 17 9 11 12 16 15 10 7 8 10 7 5 5 5 6 4 6 8 8 7
14 14 16 11 11 13 13 13 10 7 7 3 2 3 4 3 6 7 8 9 9 9
15 15 17 14 12 12 17 14 9 6 2 2 4 9 11 11 10 10 10 10 9 11
17 19 20 14 12 14 16 9 5 4 5 7 8 11 14 14 17 16 15 12 12 12
18 22 19 14 13 12 11 8 8 8 10 7 8 10 11 13 15 15 16 14 14 13
17 17 15 14 14 12 11 12 9 11 10 7 8 10 10 9 9 12 13 14 15 17
16 14 14 12 12 13 12 11 12 11 9 8 7 7 7 6 8 9 11 14 16 18
16 14 16 16 16 15 13 14 14 13 12 10 8 6 4 3 4 6 10 11 12 13
Wind_Direction
227 225 217 220 214 220 244 343 215 226 245 248 275 246 271 314 289 286 294 291 284 289
217 214 217 220 220 239 247 260 198 216 250 268 327 283 284 318 312 308 308 300 293 290
209 211 214 217 210 206 231 233 213 233 256 290 281 308 314 287 297 307 304 297 297 309
218 217 214 216 209 207 224 238 223 264 283 288 287 299 303 289 293 300 294 293 295 296
227 232 235 232 225 226 232 248 251 261 273 288 298 299 296 291 297 311 309 303 301 300
239 244 242 241 234 235 234 230 234 251 266 299 306 310 297 312 325 338 347 341 344 342
245 255 242 245 214 209 227 232 216 256 289 309 307 314 318 314 331 358 4 357 357 1
229 233 229 218 205 229 245 235 252 293 310 301 350 356 19 31 54 50 33 29 28 18
220 222 222 231 226 226 221 240 262 295 210 117 88 78 85 76 65 63 58 53 44 42
214 218 217 218 211 210 215 239 243 186 159 137 102 101 90 84 73 66 59 51 46 43
211 214 217 206 232 218 209 199 175 165 152 138 120 110 106 86 76 63 51 51 53 49
198 199 203 210 204 213 178 168 164 155 149 140 136 122 109 97 80 62 46 59 66 64
193 196 201 201 190 169 167 161 153 149 143 137 139 126 102 93 73 83 77 80 76 66
172 185 177 176 172 170 166 157 148 140 130 119 114 126 135 109 74 78 96 85 69 60
Height
1547 1549 1551 1553 1555 1555 1556 1555 1555 1555 1553 1551 1550 1548 1547 1546 1545 1545 1544 1544 1543 1542
1544 1546 1548 1550 1552 1554 1555 1555 1554 1553 1552 1552 1551 1549 1547 1545 1544 1542 1541 1541 1541 1539
1542 1544 1546 1547 1549 1551 1552 1552 1551 1551 1551 1552 1550 1547 1544 1543 1541 1539 1538 1538 1538 1538
1541 1543 1544 1546 1548 1549 1549 1551 1552 1552 1552 1550 1549 1546 1543 1541 1539 1537 1535 1535 1535 1534
1539 1541 1542 1544 1546 1547 1547 1549 1549 1549 1549 1548 1547 1544 1541 1539 1537 1534 1532 1532 1531 1530
1535 1538 1540 1541 1542 1543 1544 1543 1543 1544 1545 1545 1544 1542 1540 1538 1536 1534 1531 1530 1529 1529
1531 1535 1537 1538 1539 1538 1538 1538 1535 1539 1542 1542 1541 1540 1538 1537 1535 1533 1531 1530 1529 1527
1528 1531 1534 1535 1536 1537 1537 1535 1539 1537 1539 1540 1540 1539 1537 1536 1535 1533 1532 1531 1529 1527
1525 1528 1531 1533 1535 1536 1536 1537 1538 1538 1539 1540 1540 1539 1537 1536 1536 1534 1533 1532 1532 1530
1521 1526 1528 1531 1534 1534 1535 1537 1538 1539 1540 1541 1541 1540 1539 1538 1537 1536 1535 1535 1533 1532
1520 1522 1526 1526 1530 1533 1534 1536 1537 1539 1540 1541 1541 1541 1540 1540 1539 1538 1537 1537 1535 1532
1518 1522 1525 1525 1529 1532 1534 1536 1537 1538 1540 1540 1541 1541 1541 1541 1541 1540 1540 1538 1536 1534
1519 1520 1523 1525 1528 1531 1534 1535 1536 1538 1539 1540 1541 1541 1541 1541 1542 1542 1542 1540 1539 1537
1516 1519 1524 1526 1528 1531 1533 1535 1537 1538 1540 1541 1541 1541 1541 1541 1543 1543 1542 1541 1540 1539